Tracking 28096 objects as of 27-Sep-2023
HD Live streaming from Space Station
objects crossing your sky now

STARLINK-4160

Track STARLINK-4160 now!
10-day predictions
STARLINK-4160 is classified as:


NORAD ID: 53030
Int'l Code: 2022-076AW
Perigee: 545.2 km
Apogee: 548.6 km
Inclination: 53.2 °
Period: 95.4 minutes
Semi major axis: 6917 km
RCS: Unknown
Launch date: July 7, 2022
Source: United States (US)
Launch site: AIR FORCE EASTERN TEST RANGE (AFETR)
Your satellite tracking list
Your tracking list is empty




NASA's NSSDC Master Catalog

Two Line Element Set (TLE):
1 53030U 22076AW  23269.90104266 -.00003194  00000-0 -18266-3 0  9993
2 53030  53.2163 141.1764 0002408 147.7245 212.3895 15.08830863 67905
Source of the keplerian elements: AFSPC